Regional Weather Roundup
Issued by NWS

Home | Current Version | Previous Version | Text Only | Print | Product List | Glossary On
Versions: 1 2 3 4 5 6 7 8 9 10 11 12 13 14 15 16 17 18 19 20 21 22 23 24 25 26 27 28 29 30 31 32 33 34 35 36 37 38 39 40 41 42 43 44 45 46 47 48 49 50
000
ASUS44 KBMX 261810
RWRAL

ALABAMA REGIONAL WEATHER ROUNDUP
NATIONAL WEATHER SERVICE BIRMINGHAM AL
1200 PM CST MON JAN 26 2015

NOTE: "FAIR" INDICATES FEW OR NO CLOUDS BELOW 12,000 FEET
WITH NO SIGNIFICANT WEATHER AND/OR OBSTRUCTIONS TO VISIBILITY.

THE REMARK "TC" DENOTES TEMPERATURE IN DEGREES CELSIUS.

ALZ001>011-014-016>018-020-261900-
NORTH ALABAMA

CITY           SKY/WX    TMP DP  RH WIND       PRES   REMARKS
MUSCLE SHOALS  CLOUDY    38  29  70 NW10      30.06S WCI  31
6HR MIN TEMP:  37; 6HR MAX TEMP:  39;

HUNTSVILLE     CLOUDY    39  30  70 NW13      30.01F WCI  31
6HR MIN TEMP:  38; 6HR MAX TEMP:  41;

DECATUR        CLOUDY    38  29  70 NW16      30.02F WCI  29
6HR MIN TEMP:  37; 6HR MAX TEMP:  39;

HALEYVILLE       N/A     37  30  76 NW13      30.04F WCI  29
6HR MIN TEMP:  34; 6HR MAX TEMP:  37;

GADSDEN        CLOUDY    39  28  65 N12       29.99S WCI  32
$$

ALZ012-013-022-023-030>036-040>044-261900-
WEST CENTRAL ALABAMA

CITY           SKY/WX    TMP DP  RH WIND       PRES   REMARKS
TUSCALOOSA     PTSUNNY   45  32  60 NW12      30.06F
6HR MIN TEMP:  42; 6HR MAX TEMP:  45; 6HR PCP: TRACE;

$$

ALZ015-024>027-033>036-040>044-261900-
CENTRAL ALABAMA

CITY           SKY/WX    TMP DP  RH WIND       PRES   REMARKS
BIRMINGHAM     CLOUDY    40  31  70 NW13G21   30.03F WCI  32
6HR MIN TEMP:  38; 6HR MAX TEMP:  42; 6HR PCP: TRACE;

MONTGOMERY     CLOUDY    46  37  71 NW18      30.00F
6HR MIN TEMP:  45; 6HR MAX TEMP:  47;

SHELBY CO ARPT CLOUDY    42  33  70 NW8       30.01F
6HR MIN TEMP:  40; 6HR MAX TEMP:  43;

MAXWELL AFB    CLOUDY    46  35  66 NW17G23   30.00S
6HR MIN TEMP:  45; 6HR MAX TEMP:  47;

GREENVILLE     CLOUDY    46  35  65 NW15G22   29.99F
6HR MIN TEMP:  46; 6HR MAX TEMP:  47;

$$

ALZ019-021-028-029-037-038-045>048-261900-
EAST CENTRAL ALABAMA

CITY           SKY/WX    TMP DP  RH WIND       PRES   REMARKS
ANNISTON       CLOUDY    40  33  76 NW15G23   29.97S WCI  32
6HR MIN TEMP:  40; 6HR MAX TEMP:  44;

ALEXANDER CITY CLOUDY    43  33  67 NW9G17    29.97R
6HR MIN TEMP:  42; 6HR MAX TEMP:  47;

AUBURN         CLOUDY    43  30  61 NW14G26   29.94F
6HR MIN TEMP:  41; 6HR MAX TEMP:  43;

$$

ALZ051>064-261900-
SOUTHWEST ALABAMA

CITY           SKY/WX    TMP DP  RH WIND       PRES   REMARKS
MOBILE         MOSUNNY   54  36  50 NW10G21   30.05F
6HR MIN TEMP:  43; 6HR MAX TEMP:  55;

BROOKLEY FIELD SUNNY     58  38  47 NW18      30.05F
6HR MIN TEMP:  45; 6HR MAX TEMP:  58;

EVERGREEN      PTSUNNY   51  36  56 NW12G21   30.03F
6HR MIN TEMP:  47; 6HR MAX TEMP:  51;

$$

ALZ049-050-065>069-261900-
SOUTHEAST ALABAMA

CITY           SKY/WX    TMP DP  RH WIND       PRES   REMARKS
DOTHAN         CLOUDY    49  36  61 NW21G29   29.98F
6HR MIN TEMP:  44; 6HR MAX TEMP:  50;

OZARK          CLOUDY    49  34  55 NW15G25   29.97S
6HR MIN TEMP:  46; 6HR MAX TEMP:  51;

TROY           CLOUDY    61  36  39 NW15      29.98F
6HR MIN TEMP:  46; 6HR MAX TEMP:  61;

EUFAULA        CLOUDY    49  36  61 NW10G18   29.92F
6HR MIN TEMP:  45; 6HR MAX TEMP:  50;

$$


USA.gov is the U.S. government's official web portal to all federal, state and local government web resources and services.